When you browse on this site, cookies collect data to enhance your experience and personalize the content and advertising you see.
Visit our Privacy Policy to learn more. By continuing to use the site, you agree to this use of cookies and data.
  • In Hungary
  • List of Countries
  • For 7 days
  • Water Temperature
  • Satellite Maps
  • Weather Map
  • News
  • Weather Widgets
  • user-avatar
    Login

    Hourly Weather Boboluszki

    Today, 9 December, Sunday

    Time Temperature Precipitation Wind Pressure Humidity
    00:00 +2°C° 0 mm 5 mps 728 mmHg 83%
    01:00 +2°C° 0 mm 5 mps 727 mmHg 83%
    02:00 +2°C° 0 mm 5 mps 726 mmHg 83%
    03:00 +2°C° 0 mm 6 mps 725 mmHg 83%
    04:00 +2°C° 0 mm 6 mps 724 mmHg 83%
    05:00 +2°C° 1.1 mm 6 mps 723 mmHg 80%
    06:00 +3°C° 1.1 mm 7 mps 723 mmHg 78%
    07:00 +3°C° 0 mm 7 mps 722 mmHg 77%
    08:00 +3°C° 0.4 mm 7 mps 722 mmHg 77%
    09:00 +4°C° 0.4 mm 7 mps 722 mmHg 77%
    10:00 +4°C° 0.4 mm 8 mps 721 mmHg 76%
    11:00 +4°C° 0.4 mm 7 mps 722 mmHg 76%
    12:00 +4°C° 0.4 mm 7 mps 722 mmHg 76%
    13:00 +5°C° 0 mm 6 mps 722 mmHg 75%
    14:00 +4°C° 0.2 mm 6 mps 722 mmHg 76%
    15:00 +5°C° 0.2 mm 5 mps 722 mmHg 77%
    16:00 +5°C° 0.2 mm 5 mps 722 mmHg 78%
    17:00 +5°C° 0.2 mm 5 mps 723 mmHg 79%
    18:00 +3°C° 0.2 mm 5 mps 723 mmHg 79%
    19:00 +4°C° 0.2 mm 4 mps 723 mmHg 80%
    20:00 +4°C° 0.1 mm 4 mps 724 mmHg 81%
    21:00 +4°C° 0.1 mm 4 mps 724 mmHg 82%
    22:00 +4°C° 0.1 mm 4 mps 724 mmHg 83%
    23:00 +4°C° 0.2 mm 4 mps 725 mmHg 83%

    Tomorrow, 10 December, Monday

    Time Temperature Precipitation Wind Pressure Humidity
    00:00 +4°C° 0.2 mm 4 mps 725 mmHg 84%
    01:00 +3°C° 0.2 mm 5 mps 725 mmHg 84%
    02:00 +2°C° 0.2 mm 5 mps 726 mmHg 82%
    03:00 +2°C° 0.2 mm 5 mps 726 mmHg 81%
    04:00 +2°C° 0.2 mm 5 mps 726 mmHg 79%
    05:00 +2°C° 0.1 mm 5 mps 727 mmHg 78%
    06:00 +1°C° 0.1 mm 6 mps 727 mmHg 76%
    07:00 +1°C° 0.1 mm 6 mps 728 mmHg 75%
    08:00 0°C° 0.1 mm 7 mps 728 mmHg 74%
    09:00 +2°C° 0.1 mm 7 mps 729 mmHg 73%
    10:00 +2°C° 0.1 mm 7 mps 729 mmHg 71%
    11:00 +2°C° 0.1 mm 7 mps 730 mmHg 70%
    12:00 +2°C° 0.1 mm 7 mps 730 mmHg 68%
    13:00 +2°C° 0.1 mm 7 mps 730 mmHg 67%
    14:00 +2°C° 0.1 mm 6 mps 730 mmHg 70%
    15:00 +1°C° 0.1 mm 5 mps 731 mmHg 72%
    16:00 0°C° 0.1 mm 4 mps 731 mmHg 75%
    17:00 0°C° 0.1 mm 4 mps 731 mmHg 76%
    18:00 0°C° 0.1 mm 4 mps 731 mmHg 77%
    19:00 -1°C° 0.1 mm 4 mps 732 mmHg 78%
    20:00 -1°C° 0 mm 4 mps 732 mmHg 79%
    21:00 -1°C° 0 mm 4 mps 732 mmHg 80%
    22:00 -1°C° 0 mm 3 mps 732 mmHg 81%
    23:00 -1°C° 0.1 mm 3 mps 732 mmHg 82%

    Day after tomorrow, 11 December, Tuesday

    Time Temperature Precipitation Wind Pressure Humidity
    00:00 -1°C° 0.1 mm 3 mps 732 mmHg 82%
    01:00 -1°C° 0.1 mm 3 mps 732 mmHg 83%
    02:00 -1°C° 0.2 mm 3 mps 731 mmHg 84%
    03:00 0°C° 0.2 mm 3 mps 731 mmHg 85%
    04:00 0°C° 0.2 mm 3 mps 731 mmHg 85%
    05:00 0°C° 0.2 mm 3 mps 731 mmHg 85%
    06:00 0°C° 0.2 mm 3 mps 731 mmHg 85%
    07:00 -1°C° 0.2 mm 4 mps 731 mmHg 85%
    08:00 -1°C° 0.3 mm 4 mps 731 mmHg 84%
    09:00 0°C° 0.3 mm 4 mps 731 mmHg 83%
    10:00 0°C° 0.3 mm 5 mps 731 mmHg 82%
    11:00 0°C° 0.4 mm 5 mps 731 mmHg 82%
    12:00 0°C° 0.4 mm 4 mps 731 mmHg 82%
    13:00 +1°C° 0.4 mm 4 mps 730 mmHg 82%
    14:00 0°C° 0.4 mm 4 mps 731 mmHg 84%
    15:00 0°C° 0.4 mm 4 mps 731 mmHg 86%
    16:00 0°C° 0.4 mm 3 mps 731 mmHg 88%
    17:00 0°C° 0.3 mm 3 mps 731 mmHg 89%
    18:00 0°C° 0.3 mm 3 mps 731 mmHg 89%
    19:00 0°C° 0.3 mm 3 mps 731 mmHg 90%
    20:00 -1°C° 0.4 mm 3 mps 732 mmHg 91%
    21:00 -1°C° 0.4 mm 3 mps 732 mmHg 91%
    22:00 -1°C° 0.4 mm 3 mps 732 mmHg 92%
    23:00 -1°C° 0.2 mm 3 mps 733 mmHg 92%

    12 December, Wednesday

    Time Temperature Precipitation Wind Pressure Humidity
    00:00 -1°C° 0.2 mm 3 mps 733 mmHg 93%
    01:00 -1°C° 0.2 mm 3 mps 733 mmHg 93%
    02:00 -1°C° 0.3 mm 3 mps 734 mmHg 94%
    03:00 -1°C° 0.3 mm 3 mps 734 mmHg 94%
    04:00 -1°C° 0.3 mm 3 mps 734 mmHg 95%
    05:00 -1°C° 0.4 mm 3 mps 735 mmHg 95%
    06:00 -1°C° 0.4 mm 3 mps 735 mmHg 94%
    07:00 -1°C° 0.4 mm 3 mps 736 mmHg 94%
    08:00 -1°C° 0.2 mm 3 mps 736 mmHg 93%
    09:00 -1°C° 0.2 mm 3 mps 736 mmHg 92%
    10:00 -1°C° 0.2 mm 3 mps 737 mmHg 92%
    11:00 0°C° 0.1 mm 3 mps 737 mmHg 91%
    12:00 0°C° 0.1 mm 3 mps 737 mmHg 91%
    13:00 0°C° 0.1 mm 3 mps 737 mmHg 91%
    14:00 0°C° 0.1 mm 3 mps 737 mmHg 92%
    15:00 -1°C° 0.1 mm 2 mps 737 mmHg 93%
    16:00 -1°C° 0.1 mm 2 mps 737 mmHg 93%
    17:00 -1°C° 0 mm 2 mps 737 mmHg 94%
    18:00 -2°C° 0 mm 2 mps 738 mmHg 94%
    19:00 0°C° 0 mm 1 mps 738 mmHg 95%
    20:00 -1°C° 0 mm 1 mps 738 mmHg 95%
    21:00 -1°C° 0 mm 1 mps 738 mmHg 95%
    22:00 -1°C° 0 mm 1 mps 738 mmHg 95%
    23:00 -2°C° 0 mm 1 mps 738 mmHg 94%

    13 December, Thursday

    Time Temperature Precipitation Wind Pressure Humidity
    00:00 -2°C° 0 mm 1 mps 738 mmHg 94%
    01:00 -2°C° 0 mm 1 mps 738 mmHg 94%
    02:00 -2°C° 0 mm 1 mps 738 mmHg 93%
    03:00 -2°C° 0 mm 1 mps 738 mmHg 93%
    04:00 -3°C° 0 mm 1 mps 738 mmHg 92%
    05:00 -2°C° 0 mm 1 mps 738 mmHg 92%
    06:00 -2°C° 0 mm 1 mps 738 mmHg 92%
    07:00 -2°C° 0 mm 1 mps 738 mmHg 92%
    08:00 -2°C° 0 mm 1 mps 738 mmHg 91%
    09:00 -1°C° 0 mm 1 mps 738 mmHg 90%
    10:00 0°C° 0 mm 1 mps 738 mmHg 89%
    11:00 0°C° 0 mm 1 mps 738 mmHg 87%
    12:00 0°C° 0 mm 1 mps 738 mmHg 86%
    13:00 +1°C° 0 mm 1 mps 737 mmHg 84%
    14:00 0°C° 0 mm 1 mps 737 mmHg 86%
    15:00 0°C° 0 mm 1 mps 737 mmHg 88%
    16:00 -1°C° 0 mm 1 mps 737 mmHg 89%
    17:00 -1°C° 0 mm 1 mps 737 mmHg 90%
    18:00 -1°C° 0 mm 1 mps 737 mmHg 90%
    19:00 -2°C° 0 mm 1 mps 737 mmHg 91%
    20:00 -2°C° 0 mm 1 mps 737 mmHg 91%
    21:00 -3°C° 0 mm 1 mps 737 mmHg 91%
    22:00 -4°C° 0 mm 0 mps 737 mmHg 91%
    23:00 -4°C° 0 mm 0 mps 737 mmHg 91%

    14 December, Friday

    Time Temperature Precipitation Wind Pressure Humidity
    00:00 -4°C° 0 mm 0 mps 736 mmHg 91%
    01:00 -5°C° 0 mm 0 mps 736 mmHg 90%
    02:00 -5°C° 0 mm 0 mps 736 mmHg 90%
    03:00 -5°C° 0 mm 0 mps 736 mmHg 90%
    04:00 -5°C° 0 mm 0 mps 736 mmHg 90%
    05:00 -5°C° 0 mm 0 mps 736 mmHg 89%
    06:00 -5°C° 0 mm 0 mps 737 mmHg 89%
    07:00 -5°C° 0 mm 0 mps 737 mmHg 88%
    08:00 -4°C° 0 mm 0 mps 737 mmHg 86%
    09:00 -4°C° 0 mm 0 mps 737 mmHg 84%
    10:00 -3°C° 0 mm 0 mps 737 mmHg 82%
    11:00 -2°C° 0 mm 0 mps 737 mmHg 80%
    12:00 0°C° 0 mm 1 mps 737 mmHg 79%
    13:00 0°C° 0 mm 1 mps 737 mmHg 77%
    14:00 -1°C° 0 mm 1 mps 737 mmHg 80%
    15:00 -2°C° 0 mm 1 mps 737 mmHg 84%
    16:00 -3°C° 0 mm 1 mps 736 mmHg 87%
    17:00 -3°C° 0 mm 1 mps 736 mmHg 88%
    18:00 -3°C° 0 mm 1 mps 736 mmHg 88%
    19:00 -3°C° 0 mm 1 mps 736 mmHg 88%
    20:00 -3°C° 0 mm 1 mps 736 mmHg 88%
    21:00 -4°C° 0 mm 1 mps 736 mmHg 87%
    22:00 -4°C° 0 mm 1 mps 736 mmHg 87%
    23:00 -4°C° 0 mm 1 mps 736 mmHg 87%
    Show more